THOR AGENA D R/B, 733

Orbit data source: Space-Track

THOR AGENA D R/B, 733 is space debris in SSO originally from a launch on Sun, 19 Jan 1964 UTC launched from the Air Force Western Test Range (AFWTR). Debris objects in space refer to the collection of defunct objects orbiting the Earth. Examples of debris include non-operational satellites, rocket bodies, and fragments generated from explosions, collisions, or faulty payload assembly.

Loading next visibility...
Identifier
733, 1964-002A
Orbit
SSO
Country
Flag of USUS
Related business
Manufacturer
LMSC
Mission
Spacecraft
Bus & Motor
AGENA D, Unknown motor
Mass
600 kg wet, 600 kg dry
Launch date (UTC)
1964-01-19 (62 years ago)
Launch vehicle
Unknown
Launch site
Air Force Western Test Range (AFWTR)
Object type
Payload
Rocket body
Debris
Shape & HBR
Unknown
Radar Cross Section
Large (>1 m²)

Expand to show TLE details & history
Last TLE update: 7 hours ago

TLE from 7 hours ago
0 THOR AGENA D R/B
1 00733U 64002A   26120.57274927  .00000172  00000-0  78444-4 0  9990
2 00733  99.1182 136.7321 0033938 107.0613 253.4292 14.34045002245733
Epoch: 2026-04-30T13:44Z
TLE epoch observation values (Epoch: 2026-04-30T13:44:45.536Z)
Latitude
-0.00007°
Longitude
72.02495°
Altitude
788.166 km
Speed
7.456 km/s
True Right ascension
09h 06m 55s
True Declination
0° 00' 00"
Sunlit
Object was in daylight at epoch
Visualization orbit readout
Latitude
Unknown
Longitude
Unknown
Altitude
Unknown
Speed
Unknown
Apparent Right ascension
Unknown
Apparent Declination
Unknown
Sunlit
N/A
Visualization observer readout
Local Sidereal Time
04:47:40
Azimuth
Unknown
Elevation
Unknown
Doppler factor
Unknown
Orbital elements
Apogee altitude
799.679 km
Perigee altitude
751.124 km
Semi-major axis
7,153.539 km
Eccentricity
0.00339
Inclination
99.1182°
RAAN
136.7321°
Arg. of periapsis
107.0613°
True anomaly
253.0569°
Mean anomaly
253.4292°
Eccentric anomaly
253.24301°
Mean motion
3.58725 °/min
Orbital period
100.36 mins
BSTAR
0.000078444
Loading maneuver chart data...
Computing Atmospheric mass density...
Loading historical data...
Loading historical data...
Loading historical data...
Loading historical data...
Loading historical data...
Loading historical data...
Loading historical data...
Other satellites on launch #2 in the year 1964 (1964-01-19 UTC)

Documentation

Showing up to 5 results
|